When you browse on this site, cookies collect data to enhance your experience and personalize the content and advertising you see.
Visit our Privacy Policy to learn more. By continuing to use the site, you agree to this use of cookies and data.
  • In Deutschland
  • Länderverzeichnis
  • Für 7 Tage
  • Wassertemperatur
  • Satellitenkarten
  • Wetterkarte
  • Widgets
  • user-avatar
    Anmelden

    Stündliche Wetter Shepparton

    Heute, 11 Dezember, Dienstag

    Zeit Temperatur Niederschläge Wind Luftdruck Luftfeuchtigkeit
    00:00 +17°C° 0 mm 4 m/S 752 mmHg 55%
    01:00 +15°C° 0 mm 4 m/S 752 mmHg 59%
    02:00 +14°C° 0 mm 4 m/S 752 mmHg 63%
    03:00 +14°C° 0 mm 3 m/S 752 mmHg 67%
    04:00 +14°C° 0 mm 2 m/S 752 mmHg 73%
    05:00 +14°C° 0 mm 3 m/S 752 mmHg 70%
    06:00 +17°C° 0 mm 3 m/S 752 mmHg 66%
    07:00 +18°C° 0 mm 3 m/S 752 mmHg 63%
    08:00 +21°C° 0 mm 3 m/S 752 mmHg 55%
    09:00 +25°C° 0 mm 2 m/S 752 mmHg 48%
    10:00 +29°C° 0 mm 1 m/S 751 mmHg 39%
    11:00 +30°C° 0 mm 1 m/S 751 mmHg 33%
    12:00 +32°C° 0 mm 2 m/S 751 mmHg 27%
    13:00 +34°C° 0 mm 2 m/S 750 mmHg 20%
    14:00 +35°C° 0 mm 2 m/S 750 mmHg 19%
    15:00 +35°C° 0 mm 2 m/S 749 mmHg 17%
    16:00 +35°C° 0 mm 2 m/S 749 mmHg 16%
    17:00 +32°C° 0 mm 2 m/S 749 mmHg 19%
    18:00 +31°C° 0 mm 2 m/S 749 mmHg 23%
    19:00 +29°C° 0 mm 2 m/S 749 mmHg 26%
    20:00 +27°C° 0 mm 3 m/S 749 mmHg 34%
    21:00 +25°C° 0 mm 3 m/S 749 mmHg 41%
    22:00 +22°C° 0 mm 3 m/S 749 mmHg 48%
    23:00 +22°C° 0 mm 3 m/S 749 mmHg 52%

    Morgen, 12 Dezember, Mittwoch

    Zeit Temperatur Niederschläge Wind Luftdruck Luftfeuchtigkeit
    00:00 +22°C° 0 mm 3 m/S 749 mmHg 56%
    01:00 +22°C° 0 mm 3 m/S 749 mmHg 60%
    02:00 +22°C° 0 mm 3 m/S 748 mmHg 63%
    03:00 +22°C° 0 mm 4 m/S 748 mmHg 65%
    04:00 +22°C° 0 mm 4 m/S 748 mmHg 68%
    05:00 +23°C° 0 mm 5 m/S 748 mmHg 66%
    06:00 +23°C° 0 mm 5 m/S 748 mmHg 65%
    07:00 +24°C° 0 mm 6 m/S 748 mmHg 64%
    08:00 +27°C° 0 mm 6 m/S 748 mmHg 58%
    09:00 +29°C° 0 mm 5 m/S 747 mmHg 51%
    10:00 +32°C° 0 mm 5 m/S 747 mmHg 45%
    11:00 +34°C° 0 mm 5 m/S 747 mmHg 38%
    12:00 +35°C° 0 mm 5 m/S 746 mmHg 32%
    13:00 +37°C° 0 mm 4 m/S 745 mmHg 25%
    14:00 +36°C° 0.9 mm 5 m/S 744 mmHg 31%
    15:00 +34°C° 0.9 mm 5 m/S 744 mmHg 36%
    16:00 +33°C° 0.9 mm 5 m/S 743 mmHg 42%
    17:00 +30°C° 1.5 mm 5 m/S 743 mmHg 50%
    18:00 +27°C° 1.5 mm 4 m/S 743 mmHg 58%
    19:00 +25°C° 1.5 mm 4 m/S 743 mmHg 66%
    20:00 +25°C° 0.5 mm 4 m/S 743 mmHg 69%
    21:00 +23°C° 0.5 mm 4 m/S 743 mmHg 71%
    22:00 +24°C° 0.5 mm 3 m/S 743 mmHg 74%
    23:00 +24°C° 0.1 mm 3 m/S 742 mmHg 74%

    übermorgen, 13 Dezember, Donnerstag

    Zeit Temperatur Niederschläge Wind Luftdruck Luftfeuchtigkeit
    00:00 +24°C° 0.1 mm 3 m/S 742 mmHg 74%
    01:00 +22°C° 0.1 mm 3 m/S 741 mmHg 74%
    02:00 +22°C° 1 mm 4 m/S 741 mmHg 77%
    03:00 +22°C° 1 mm 4 m/S 740 mmHg 81%
    04:00 +21°C° 1 mm 5 m/S 740 mmHg 84%
    05:00 +22°C° 2.7 mm 5 m/S 739 mmHg 83%
    06:00 +22°C° 2.7 mm 5 m/S 739 mmHg 83%
    07:00 +23°C° 2.7 mm 5 m/S 739 mmHg 82%
    08:00 +23°C° 1.2 mm 5 m/S 738 mmHg 79%
    09:00 +24°C° 1.2 mm 6 m/S 738 mmHg 76%
    10:00 +26°C° 1.2 mm 6 m/S 737 mmHg 73%
    11:00 +24°C° 3.3 mm 6 m/S 737 mmHg 74%
    12:00 +24°C° 3.3 mm 6 m/S 736 mmHg 74%
    13:00 +23°C° 3.3 mm 6 m/S 736 mmHg 75%
    14:00 +21°C° 2.7 mm 6 m/S 736 mmHg 79%
    15:00 +20°C° 2.7 mm 5 m/S 736 mmHg 83%
    16:00 +17°C° 2.7 mm 5 m/S 736 mmHg 87%
    17:00 +16°C° 0.5 mm 6 m/S 736 mmHg 86%
    18:00 +15°C° 0.5 mm 6 m/S 737 mmHg 85%
    19:00 +14°C° 0.5 mm 7 m/S 737 mmHg 84%
    20:00 +13°C° 0.1 mm 6 m/S 738 mmHg 82%
    21:00 +13°C° 0.1 mm 5 m/S 738 mmHg 81%
    22:00 +13°C° 0.1 mm 4 m/S 739 mmHg 79%
    23:00 +12°C° 0 mm 4 m/S 739 mmHg 79%

    14 Dezember, Freitag

    Zeit Temperatur Niederschläge Wind Luftdruck Luftfeuchtigkeit
    00:00 +12°C° 0 mm 4 m/S 739 mmHg 78%
    01:00 +12°C° 0 mm 4 m/S 739 mmHg 78%
    02:00 +12°C° 0.1 mm 4 m/S 739 mmHg 79%
    03:00 +12°C° 0.1 mm 5 m/S 739 mmHg 80%
    04:00 +12°C° 0.1 mm 5 m/S 739 mmHg 81%
    05:00 +12°C° 0.1 mm 5 m/S 740 mmHg 79%
    06:00 +13°C° 0.1 mm 6 m/S 740 mmHg 76%
    07:00 +13°C° 0.1 mm 6 m/S 741 mmHg 74%
    08:00 +15°C° 0 mm 6 m/S 741 mmHg 67%
    09:00 +16°C° 0 mm 6 m/S 742 mmHg 59%
    10:00 +18°C° 0 mm 7 m/S 742 mmHg 51%
    11:00 +20°C° 0 mm 6 m/S 742 mmHg 47%
    12:00 +21°C° 0 mm 5 m/S 742 mmHg 44%
    13:00 +22°C° 0 mm 5 m/S 742 mmHg 40%
    14:00 +22°C° 0 mm 4 m/S 742 mmHg 39%
    15:00 +22°C° 0 mm 4 m/S 742 mmHg 39%
    16:00 +22°C° 0 mm 4 m/S 742 mmHg 38%
    17:00 +21°C° 0 mm 3 m/S 742 mmHg 43%
    18:00 +20°C° 0 mm 2 m/S 742 mmHg 47%
    19:00 +20°C° 0 mm 1 m/S 743 mmHg 51%
    20:00 +19°C° 0 mm 1 m/S 743 mmHg 54%
    21:00 +19°C° 0 mm 1 m/S 743 mmHg 56%
    22:00 +18°C° 0 mm 1 m/S 743 mmHg 59%
    23:00 +17°C° 0 mm 2 m/S 743 mmHg 59%

    15 Dezember, Samstag

    Zeit Temperatur Niederschläge Wind Luftdruck Luftfeuchtigkeit
    00:00 +16°C° 0 mm 2 m/S 743 mmHg 59%
    01:00 +16°C° 0 mm 2 m/S 743 mmHg 60%
    02:00 +16°C° 0 mm 2 m/S 742 mmHg 63%
    03:00 +16°C° 0 mm 3 m/S 742 mmHg 65%
    04:00 +16°C° 0 mm 3 m/S 742 mmHg 68%
    05:00 +16°C° 0 mm 3 m/S 742 mmHg 68%
    06:00 +17°C° 0 mm 3 m/S 742 mmHg 68%
    07:00 +18°C° 0 mm 3 m/S 743 mmHg 68%
    08:00 +18°C° 0.2 mm 3 m/S 743 mmHg 67%
    09:00 +19°C° 0.2 mm 3 m/S 743 mmHg 66%
    10:00 +20°C° 0.2 mm 3 m/S 743 mmHg 65%
    11:00 +21°C° 0.1 mm 3 m/S 743 mmHg 60%
    12:00 +22°C° 0.1 mm 3 m/S 743 mmHg 55%
    13:00 +24°C° 0.1 mm 3 m/S 742 mmHg 50%
    14:00 +24°C° 0 mm 3 m/S 742 mmHg 48%
    15:00 +25°C° 0 mm 3 m/S 742 mmHg 46%
    16:00 +25°C° 0 mm 3 m/S 741 mmHg 44%
    17:00 +24°C° 0 mm 2 m/S 741 mmHg 47%
    18:00 +24°C° 0 mm 2 m/S 742 mmHg 51%
    19:00 +23°C° 0 mm 2 m/S 742 mmHg 54%
    20:00 +22°C° 0 mm 1 m/S 742 mmHg 56%
    21:00 +21°C° 0 mm 1 m/S 742 mmHg 58%
    22:00 +20°C° 0 mm 1 m/S 743 mmHg 60%
    23:00 +20°C° 0 mm 1 m/S 743 mmHg 62%

    16 Dezember, Sonntag

    Zeit Temperatur Niederschläge Wind Luftdruck Luftfeuchtigkeit
    00:00 +19°C° 0 mm 1 m/S 743 mmHg 64%
    01:00 +18°C° 0 mm 2 m/S 742 mmHg 66%
    02:00 +17°C° 0 mm 2 m/S 742 mmHg 68%
    03:00 +17°C° 0 mm 2 m/S 743 mmHg 70%
    04:00 +18°C° 0 mm 1 m/S 743 mmHg 71%
    05:00 +18°C° 0 mm 2 m/S 743 mmHg 68%
    06:00 +19°C° 0 mm 2 m/S 744 mmHg 65%
    07:00 +20°C° 0 mm 2 m/S 744 mmHg 61%
    08:00 +22°C° 0 mm 3 m/S 744 mmHg 55%
    09:00 +25°C° 0 mm 4 m/S 744 mmHg 49%
    10:00 +26°C° 0 mm 4 m/S 744 mmHg 43%
    11:00 +27°C° 0.1 mm 5 m/S 744 mmHg 40%
    12:00 +28°C° 0.1 mm 5 m/S 744 mmHg 37%
    13:00 +29°C° 0.1 mm 5 m/S 744 mmHg 34%
    14:00 +29°C° 0 mm 5 m/S 744 mmHg 34%
    15:00 +30°C° 0 mm 5 m/S 744 mmHg 33%
    16:00 +30°C° 0 mm 5 m/S 743 mmHg 33%
    17:00 +29°C° 0 mm 4 m/S 744 mmHg 39%
    18:00 +27°C° 0 mm 4 m/S 744 mmHg 45%
    19:00 +26°C° 0 mm 3 m/S 744 mmHg 52%
    20:00 +25°C° 0 mm 3 m/S 745 mmHg 56%
    21:00 +24°C° 0 mm 2 m/S 745 mmHg 61%
    22:00 +23°C° 0 mm 2 m/S 746 mmHg 65%
    23:00 +21°C° 0 mm 2 m/S 746 mmHg 68%
    Mehr zeigen